Home > Weather > Ashgabat > Past weeks

Flag for Turkmenistan Weather for the Past 2 Weeks in Ashgabat, Turkmenistan

Now
68 °F

Broken clouds.


Feels Like: 68 °F
Forecast: 38 / 46 °F
Wind: 1 mph from South

Location: Ashgabat

Current Time: Feb 7, 2016 at 7:02:40 PM

Latest Report: Feb 7, 2016 at 6:00 PM


Visibility: N/A

Pressure: 29.86 "Hg

Humidity: 30%

Dew point: 36 °F

Location of AshgabatLocation

Historic Weather in Ashgabat — Graph

°F

Ashgabat Temperature Yesterday

Maximum temperature yesterday: 68 °F (at 2:00 PM)
Minimum temperature yesterday: 36 °F (at 7:00 AM)
Average temperature yesterday: 51 °F

High & Low Weather Summary for the Past Weeks

 TemperatureHumidityPressure
High73 °F (Feb 7, 4:00 PM)100% (Jan 25, 10:00 PM)30.45 "Hg (Jan 25, 10:00 PM)
Low30 °F (Jan 27, 5:30 PM)17% (Feb 7, 4:00 PM)29.77 "Hg (Feb 6, 3:00 PM)
Average42 °F79%30.14 "Hg
* Reported Jan 23 6:00 PM — Feb 7 6:00 PM, Ashgabat, Weather by CustomWeather, © 2016

Note: Actual official high and low records may vary slightly from our data, if they occured in-between our weather recording intervals... More about our weather records

Advertising

Ashgabat Weather History for the Previous 24 Hours

 ConditionsComfort  
Time TempWeatherWind HumidityBarometerVisibility
6:00 PM
Sun, Feb 7
68 °FBroken clouds.1 mph30%29.86 "HgN/A
5:00 PM70 °FBroken clouds.5 mph23%29.83 "HgN/A
4:00 PM73 °FPartly sunny.1 mph17%29.86 "HgN/A
3:00 PM72 °FPartly sunny.2 mph19%29.86 "Hg6 mi
2:00 PM70 °FScattered clouds.2 mph25%29.86 "HgN/A
1:30 PM66 °FPartly sunny.3 mph30%29.89 "HgN/A
1:00 PM64 °FPartly sunny.3 mph34%29.89 "HgN/A
12:30 PM61 °FPartly sunny.5 mph42%29.92 "HgN/A
12:00 PM61 °FPartly sunny.6 mph39%29.92 "HgN/A
11:30 AM57 °FBroken clouds.8 mph44%29.92 "HgN/A
11:00 AM55 °FBroken clouds.13 mph51%29.92 "HgN/A
10:00 AM52 °FPassing clouds.17 mph54%29.92 "HgN/A
9:00 AM54 °FPassing clouds.14 mph41%29.86 "HgN/A
8:00 AM45 °FPassing clouds.3 mph57%29.83 "Hg6 mi
7:30 AM46 °FClear.1 mph53%29.80 "HgN/A
7:00 AM46 °FClear.2 mph53%29.77 "HgN/A
6:30 AM48 °FClear.3 mph46%29.77 "HgN/A
6:00 AM45 °FClear.2 mph61%29.77 "HgN/A
5:30 AM46 °FClear.2 mph53%29.77 "HgN/A
5:00 AM45 °FClear.3 mph66%29.77 "HgN/A
4:00 AM46 °FClear.5 mph53%29.77 "HgN/A
3:00 AM48 °FClear.5 mph50%29.77 "HgN/A
2:00 AM50 °FClear.1 mph47%29.77 "HgN/A
1:00 AM48 °FClear.3 mph62%29.77 "Hg6 mi
12:00 AM50 °FClear.3 mph58%29.77 "Hg4 mi
11:00 PM
Sat, Feb 6
50 °FClear.3 mph67%29.80 "Hg3 mi
10:00 PM52 °FClear.2 mph67%29.80 "Hg4 mi
9:00 PM52 °FHaze.2 mph67%29.80 "Hg3 mi
8:00 PM54 °FPassing clouds.2 mph67%29.80 "Hg3 mi
7:00 PM59 °FScattered clouds.5 mph51%29.77 "Hg4 mi
Weather by CustomWeather, © 2016

See weather overviewHow to use our weather pages